Location: Unspecified
(44.0704°N, 88.6889°W)
Time: 13:32:00
(UTC+02:00)

Courier 1B Rocket - Visible Passes

Search period start: 05 August 2020 00:00
Search period end: 15 August 2020 00:00
Orbit: 920 x 1202 km, 28.3° (Epoch: 04 August)

Date Brightness Start Highest point End Pass type
(mag) Time Alt. Az. Time Alt. Az. Time Alt. Az.
07 Aug 6.9 11:23:30 10° S 11:26:14 13° SSE 11:29:02 10° SE visible
08 Aug 6.7 12:13:24 10° SSW 12:17:46 18° S 12:22:19 10° SE visible
09 Aug 6.7 11:14:45 13° S 11:17:04 15° SSE 11:20:48 10° SE visible
10 Aug 7.0 10:17:27 12° SSE 10:17:27 12° SSE 10:18:46 10° SE visible
10 Aug 6.6 12:04:11 10° SW 12:08:40 20° S 12:13:21 10° SE visible
11 Aug 6.5 11:06:33 16° S 11:07:57 17° S 11:12:08 10° SE visible
12 Aug 6.9 10:09:16 13° SE 10:09:16 13° SE 10:10:41 10° SE visible
12 Aug 6.5 11:55:38 12° SW 11:59:35 20° S 12:04:11 10° SE visible
13 Aug 6.4 10:58:25 18° S 10:58:53 19° S 11:03:13 10° SE visible
14 Aug 7.0 10:01:15 12° SE 10:01:15 12° SE 10:02:07 10° SE visible
14 Aug 6.5 11:47:38 14° SW 11:50:32 18° S 11:54:50 10° SE visible
